Weather History for Casper, WY

Change the Weather History Date:

Saturday, August 24, 2013

  Actual Average Record
Temperature  
Mean Temperature 74 °F 67 °F  
Max Temperature 88 °F 85 °F 97 °F (1994)
Min Temperature 60 °F 50 °F 39 °F (2010)
Degree Days  
Heating Degree Days 0 1  
Month to date heating degree days 0 15  
Since 1 June heating degree days 72 167  
Since 1 July heating degree days 0 31  
Cooling Degree Days 9 4  
Month to date cooling degree days 151 132  
Year to date cooling degree days 474 377  
Since 1 June cooling degree days 464 373  
Growing Degree Days 24 (Base 50)    
Moisture  
Dew Point 46 °F    
Average Humidity 44    
Maximum Humidity 69    
Minimum Humidity 18    
Precipitation  
Precipitation 0.00 in 0.02 in 0.26 in (1940)
Month to date precipitation 0.70 0.69  
Year to date precipitation 9.20 8.92  
Snow  
Snow 0.00 in 0.00 in - ()
Month to date snowfall 0.0 0.0  
Since 1 June snowfall 0.0 0.1  
Since 1 July snowfall 0.0 0.0  
Snow Depth 0.00 in    
Sea Level Pressure  
Sea Level Pressure 29.85 in    
Wind  
Wind Speed 12 mph (SW)    
Max Wind Speed 29 mph    
Max Gust Speed 38 mph    
Visibility 10 miles    
Events      
T = Trace of Precipitation, MM = Missing Value Source: NWS Daily Summary

Daily Weather History Graph

Daily Weather History Graph

Search for Another Location

Airport:

Trip Planner

Search our weather history database for the weather conditions in past years. The results will help you decide how hot, cold, wet, or windy it might be!

Date:

Astronomy

Aug. 24, 2013 Rise Set
Actual Time 6:22 AM MDT 7:53 PM MDT
Civil Twilight 5:52 AM MDT 8:23 PM MDT
Nautical Twilight 5:16 AM MDT 8:58 PM MDT
Astronomical Twilight 4:37 AM MDT 9:37 PM MDT
Moon 9:41 PM MDT 10:32 AM MDT
Length of Visible Light 14h 30m
Length of Day
13h 31m
Waning Gibbous, 84% of the Moon is Illuminated
Aug 24
Waning Gibbous
Aug 28
Last Quarter
Sep 5
New
Sep 12
First Quarter
Sep 19
Full

Hourly Weather History & Observations

Time (MDT) Temp. Dew Point Humidity Pressure Visibility Wind Dir Wind Speed Gust Speed Precip Events Conditions
12:53 AM 63.0 °F 52.0 °F 67% 29.81 in 10.0 mi Variable 3.5 mph - N/A   Clear
1:53 AM 66.0 °F 51.1 °F 59% 29.79 in 10.0 mi SSW 16.1 mph 20.7 mph N/A   Clear
2:53 AM 66.0 °F 50.0 °F 56% 29.79 in 10.0 mi SSW 18.4 mph - N/A   Clear
3:53 AM 62.1 °F 50.0 °F 65% 29.82 in 10.0 mi WSW 4.6 mph - N/A   Clear
4:53 AM 63.0 °F 50.0 °F 63% 29.82 in 10.0 mi SW 12.7 mph - N/A   Clear
5:53 AM 61.0 °F 50.0 °F 67% 29.83 in 10.0 mi SSW 10.4 mph - N/A   Clear
6:53 AM 62.1 °F 50.0 °F 65% 29.84 in 10.0 mi SW 12.7 mph - N/A   Clear
7:53 AM 64.0 °F 51.1 °F 63% 29.85 in 10.0 mi SW 16.1 mph - N/A   Clear
8:53 AM 69.1 °F 50.0 °F 51% 29.88 in 10.0 mi SW 21.9 mph 25.3 mph N/A   Clear
9:53 AM 69.1 °F 50.0 °F 51% 29.89 in 10.0 mi SSW 19.6 mph 25.3 mph N/A   Clear
10:53 AM 71.1 °F 48.9 °F 45% 29.90 in 10.0 mi SSW 26.5 mph 34.5 mph N/A   Clear
11:53 AM 72.0 °F 48.9 °F 44% 29.90 in 10.0 mi SW 25.3 mph 34.5 mph N/A   Clear
12:53 PM 75.9 °F 50.0 °F 40% 29.88 in 10.0 mi SW 21.9 mph 31.1 mph N/A   Clear
1:53 PM 81.0 °F 48.0 °F 31% 29.85 in 10.0 mi SSW 15.0 mph 25.3 mph N/A   Clear
2:53 PM 86.0 °F 39.9 °F 20% 29.82 in 10.0 mi WSW 15.0 mph 28.8 mph N/A   Clear
3:53 PM 86.0 °F 39.0 °F 19% 29.82 in 10.0 mi WSW 13.8 mph 25.3 mph N/A   Clear
4:53 PM 86.0 °F 37.0 °F 18% 29.81 in 10.0 mi NW 8.1 mph 20.7 mph N/A   Clear
5:53 PM 84.9 °F 37.0 °F 18% 29.82 in 10.0 mi WNW 6.9 mph - N/A   Mostly Cloudy
6:53 PM 81.0 °F 39.9 °F 23% 29.82 in 10.0 mi Calm Calm - N/A   Partly Cloudy
7:53 PM 73.9 °F 43.0 °F 33% 29.86 in 10.0 mi SSE 5.8 mph - N/A   Scattered Clouds
8:53 PM 75.9 °F 43.0 °F 31% 29.86 in 10.0 mi South 5.8 mph - N/A   Clear
9:53 PM 72.0 °F 41.0 °F 33% 29.88 in 10.0 mi WSW 3.5 mph - N/A   Clear
10:53 PM 62.1 °F 42.1 °F 48% 29.91 in 10.0 mi North 4.6 mph - N/A   Clear
11:53 PM 64.0 °F 42.1 °F 45% 29.91 in 10.0 mi West 6.9 mph - N/A   Clear